Regional Weather Roundup
Issued by NWS

Home | Current Version | Previous Version | Text Only | Print | Product List | Glossary On
Versions: 1 2 3 4 5 6 7 8 9 10 11 12 13 14 15 16 17 18 19 20 21 22 23 24 25 26 27 28 29 30 31 32 33 34 35 36 37 38 39 40 41 42 43 44 45 46 47 48 49 50
000
ASUS43 KDMX 192107
RWRIA

WEATHER ROUNDUP FOR IOWA
NATIONAL WEATHER SERVICE DES MOINES IA
300 PM CST FRI DEC 19 2014

NOTE: "FAIR" INDICATES FEW OR NO CLOUDS BELOW 12,000 FEET WITH NO
SIGNIFICANT WEATHER AND/OR OBSTRUCTIONS TO VISIBILITY.

* - THESE STATIONS ARE NOT NWS STATIONS...THUS NOT UNDER NWS
QUALITY CONTROL.  THEY ALSO DO NOT REPORT WEATHER SUCH
AS PRECIPITATION OR FOG.

IAZ001>003-012>014-020>022-031>034-043>046-192200-
   NORTHWEST IOWA

CITY           SKY/WX    TMP DP  RH WIND       PRES   REMARKS
CARROLL *      CLOUDY    32  30  93 S12       30.17S WCI  23
CHEROKEE *     CLOUDY    34  28  80 S12       30.14S WCI  25
DENISON *      CLOUDY    32  30  93 S10G16    30.14S FOG     WCI  24
LE MARS *      CLOUDY    34  28  80 S15       30.12S WCI  24
ORANGE CITY *  CLOUDY    34  27  75 S13       30.11S HAZE    WCI  25
SHELDON *      CLOUDY    32  30  93 S15G23    30.10S WCI  22
SIOUX CITY     CLOUDY    35  28  75 S15       30.14S WCI  25
SPENCER        CLOUDY    34  27  75 S12       30.13F WCI  25
STORM LAKE *   CLOUDY    32  30  93 S12       30.14S FOG     WCI  23
$$

IAZ055>058-069>071-079>083-090>094-192200-
   SOUTHWEST IOWA

CITY           SKY/WX    TMP DP  RH WIND       PRES   REMARKS
ATLANTIC *     CLOUDY    32  30  93 S13       30.18S FOG     WCI  22
AUDUBON *      SUNNY     32  27  80 S9        30.18S HAZE    WCI  24
CLARINDA *     CLOUDY    30  30 100 S9        30.22F FOG     WCI  22
COUNCIL BLFS * CLOUDY    32  32 100 S9        30.15F WCI  24
CRESTON *      CLOUDY    32  30  93 S10       30.19S WCI  24
HARLAN  *      CLOUDY    32  32 100 S10G16    30.20S WCI  24
LAMONI         CLOUDY    32  29  88 S7        30.20F WCI  26
RED OAK *      CLOUDY    30  30 100 S13       30.20S WCI  20
SHENANDOAH *   CLOUDY    30  30 100 S8        30.21S WCI  23
$$

IAZ047>049-059>061-072>074-084-192200-
   CENTRAL IOWA

CITY           SKY/WX    TMP DP  RH WIND       PRES   REMARKS
AMES           CLOUDY    31  26  82 SE10      30.22S WCI  22
ANKENY *       CLOUDY    32  28  86 SE9       30.22F WCI  24
CHARITON *     CLOUDY    32  30  93 SE7       30.22S FOG     WCI  26
DES MOINES     CLOUDY    33  27  78 SE7       30.22F WCI  27
GRINNELL*      CLOUDY    30  27  86 SE8       30.24S WCI  23
KNOXVILLE *    CLOUDY    32  27  80 SE7       30.22S WCI  26
MARSHALLTOWN   CLOUDY    30  25  81 SE9       30.23R WCI  22
PELLA *        CLOUDY    32  28  86 SE6       30.26S FOG     WCI  26
PERRY *        CLOUDY    34  32  93 SE8       30.20S FOG     WCI  27
$$

IAZ004>006-015-016-023>025-035-036-192200-
   NORTH CENTRAL IOWA

CITY           SKY/WX    TMP DP  RH WIND       PRES   REMARKS
ALGONA *       PTSUNNY   32  30  93 S13       30.17S FOG     WCI  22
CLARION *      CLOUDY    32  32 100 S12       30.19S FOG     WCI  23
ESTHERVILLE    CLOUDY    32  28  85 S15       30.13F FOG     WCI  22
FORT DODGE *   CLOUDY    32  27  80 S8        30.19S WCI  25
MASON CITY     CLOUDY    30  26  85 SE10      30.21S FOG     WCI  21
FOREST CITY *  CLOUDY    32  28  86 S7        30.18S FOG     WCI  26
IOWA FALLS *   CLOUDY    32  28  86 SE9       30.21S WCI  24
$$

IAZ007>011-017>019-026>030-037>042-050>054-066-192200-
   NORTHEAST IOWA

CITY           SKY/WX    TMP DP  RH WIND       PRES   REMARKS
CEDAR RAPIDS   CLOUDY    32  22  66 S7        30.26R WCI  26
CHARLES CITY * CLOUDY    30  25  80 SE8       30.22S WCI  23
CLINTON *      CLOUDY    28  19  69 S6        30.32R WCI  22
DECORAH *      CLOUDY    28  19  69 VRB5      30.22S WCI  23
DUBUQUE        CLOUDY    28  21  75 SW7       30.26R WCI  21
MONTICELLO *   CLOUDY    28  23  80 S7        30.28R WCI  21
OELWEIN *      CLOUDY    28  21  74 S8        30.25R WCI  20
WATERLOO       CLOUDY    30  23  75 S10       30.25R WCI  21
$$

IAZ064-065-067-068-078-192200-
   EAST CENTRAL IOWA

CITY           SKY/WX    TMP DP  RH WIND       PRES   REMARKS
DAVENPORT      CLOUDY    30  19  63 S3        30.30R
IOWA CITY      CLOUDY    30  21  69 S7        30.30R WCI  23
MT. PLEASANT * CLOUDY    30  25  80 SE6       30.29S WCI  24
MUSCATINE *    CLOUDY    32  21  64 S6        30.31R WCI  26
QUAD CITIES    CLOUDY    32  18  56 CALM      30.30R
$$

IAZ062-063-075>077-085>089-095>099-192200-
   SOUTHEAST IOWA

CITY           SKY/WX    TMP DP  RH WIND       PRES   REMARKS
BURLINGTON     CLOUDY    33  24  69 CALM      30.28S
FAIRFIELD *    CLOUDY    30  25  80 SE6       30.28R WCI  24
FORT MADISON * CLOUDY    34  27  75 CALM      30.29F
KEOKUK *       CLOUDY    32  27  80 E3        30.27F
OSKALOOSA *    CLOUDY    30  27  86 SE7       30.26S WCI  23
CENTERVILLE *  CLOUDY    32  32 100 E7        30.24F WCI  26
OTTUMWA        CLOUDY    31  25  78 SE8       30.25F WCI  23
WASHINGTON *   CLOUDY    30  27  86 S8        30.28S WCI  23
$$

ABBREVIATIONS USED IN REMARKS
   TC - TEMPERATURES IN CELSIUS
  WCI - WIND CHILL INDEX
   HX - HEAT INDEX
  VSB - VISIBILITY
$$



USA.gov is the U.S. government's official web portal to all federal, state and local government web resources and services.